Find Starlink 2071

NORAD ID: 47361 Int'l Des: 2021-005 Owner: SPXS Country: US Constellation: starlink operational
LEOCIRCULARSTARLINK_TYPE

現在のビュー

3D地球を読み込み中...

About Starlink 2071

Starlink 2071 (NORAD 47361) is a starlink constellation satellite (v1.0) launched Jan 20, 2021 by SPXS of US. It operates in LEO, CIRCULAR, STARLINK_TYPE orbit with a mass of 260.00 kg.

次回通過

Passes for default location (London). Set your location on the main map for personalized predictions.

高度履歴

Loading altitude history...

軌道要素

1 47361U 21005N 26265.53557182 .00000010 00000-0 12102-4 0 9997
2 47361 53.1592 201.3491 0001521 87.0272 273.0904 15.31695847313532
Epoch: Sep 22, 2026 • Age: 13 hours

現在のステータス

高度 475.4 km
遠地点 / 近地点 N/A
速度 7.63 km/s
衛星直下点 49.35°N, 128.23°W
打ち上げ日 Jan 20, 2021
運用期間 5.6 years
タイプ internet

技術仕様

分類 Payload
質量 260.00 kg
乾燥質量 248.00 kg
長さ 0.20 m
スパン 9.00 m
形状 ? Box + pan
製造者 SPXS
バスタイプ Starlink
フェーズステータス In Orbit
所有者/国 SPXS/US

Most Searched